TimeCST,TemperatureF,Dew PointF,Humidity,Sea Level PressureIn,VisibilityMPH,Wind Direction,Wind SpeedMPH,Gust SpeedMPH,PrecipitationIn,Events,Conditions,WindDirDegrees,DateUTC
12:03 AM,21.2,21.2,100,30.21,0.2,Calm,Calm,-,N/A,Fog,Light Freezing Fog,0,2013-11-08 06:03:00
12:08 AM,21.2,21.2,100,30.21,0.5,Calm,Calm,-,N/A,Fog,Light Freezing Fog,0,2013-11-08 06:08:00
12:23 AM,21.2,21.2,100,30.21,1.8,Calm,Calm,-,N/A,,Clear,0,2013-11-08 06:23:00
12:28 AM,21.2,21.2,100,30.21,6.0,Calm,Calm,-,N/A,,Clear,0,2013-11-08 06:28:00
12:33 AM,21.2,21.2,100,30.21,6.0,Calm,Calm,-,N/A,,Clear,0,2013-11-08 06:33:00
12:38 AM,21.2,19.4,93,30.21,1.5,Calm,Calm,-,N/A,,Clear,0,2013-11-08 06:38:00
12:43 AM,21.2,21.2,100,30.21,1.2,Calm,Calm,-,N/A,,Clear,0,2013-11-08 06:43:00
12:48 AM,21.2,21.2,100,30.21,2.5,Calm,Calm,-,N/A,,Clear,0,2013-11-08 06:48:00
12:53 AM,21.2,21.2,100,30.21,2.5,Calm,Calm,-,N/A,,Clear,0,2013-11-08 06:53:00
12:58 AM,20.8,20.7,99,30.21,1.8,Calm,Calm,-,N/A,,Clear,0,2013-11-08 06:58:00
1:03 AM,21.2,21.2,100,30.21,2.5,Calm,Calm,-,N/A,,Clear,0,2013-11-08 07:03:00
1:08 AM,21.2,21.2,100,30.21,9.0,SSE,1.2,-,N/A,,Clear,150,2013-11-08 07:08:00
1:28 AM,19.4,19.4,100,30.21,8.0,SSE,2.3,-,N/A,,Clear,150,2013-11-08 07:28:00
1:38 AM,19.4,19.4,100,30.21,4.0,SE,2.3,-,N/A,,Clear,130,2013-11-08 07:38:00
1:53 AM,19.4,19.4,100,30.21,4.0,SE,2.3,-,N/A,,Clear,130,2013-11-08 07:53:00
1:58 AM,19.6,19.2,99,30.21,4.0,ESE,2.3,-,N/A,,Clear,120,2013-11-08 07:58:00
2:13 AM,19.4,19.4,100,30.21,6.0,ESE,2.3,-,N/A,,Clear,110,2013-11-08 08:13:00
2:33 AM,19.4,19.4,100,30.21,10.0,Calm,Calm,-,N/A,,Clear,0,2013-11-08 08:33:00
2:38 AM,19.4,17.6,93,30.21,8.0,Calm,Calm,-,N/A,,Clear,0,2013-11-08 08:38:00
2:58 AM,19.9,19.6,99,30.21,9.0,Calm,Calm,-,N/A,,Clear,0,2013-11-08 08:58:00
3:03 AM,19.4,17.6,93,30.21,9.0,East,1.2,-,N/A,,Clear,100,2013-11-08 09:03:00
3:13 AM,19.4,19.4,100,30.22,8.0,SSE,2.3,-,N/A,,Clear,150,2013-11-08 09:13:00
3:18 AM,19.4,19.4,100,30.22,9.0,South,2.3,-,N/A,,Clear,170,2013-11-08 09:18:00
3:33 AM,19.4,17.6,93,30.22,9.0,ESE,1.2,-,N/A,,Clear,110,2013-11-08 09:33:00
3:53 AM,19.4,19.4,100,30.22,10.0,SSE,2.3,-,N/A,,Clear,150,2013-11-08 09:53:00
3:58 AM,18.7,18.1,98,30.22,10.0,SE,1.2,-,N/A,,Clear,140,2013-11-08 09:58:00
4:03 AM,17.6,17.6,100,30.22,9.0,SSE,2.3,-,N/A,,Clear,150,2013-11-08 10:03:00
4:23 AM,19.4,19.4,100,30.22,6.0,SE,2.3,-,N/A,,Clear,130,2013-11-08 10:23:00
4:33 AM,19.4,19.4,100,30.22,5.0,SE,2.3,-,N/A,,Clear,130,2013-11-08 10:33:00
4:38 AM,17.6,17.6,100,30.22,5.0,SE,2.3,-,N/A,,Clear,140,2013-11-08 10:38:00
4:58 AM,18.1,17.6,98,30.27,4.0,SE,3.5,-,N/A,,Clear,130,2013-11-08 10:58:00
5:13 AM,17.6,17.6,100,30.22,3.0,ESE,3.5,-,N/A,,Clear,120,2013-11-08 11:13:00
5:23 AM,17.6,17.6,100,30.22,3.0,ESE,3.5,-,N/A,,Clear,120,2013-11-08 11:23:00
5:38 AM,17.6,15.8,93,30.21,4.0,ESE,3.5,-,N/A,,Clear,120,2013-11-08 11:38:00
5:58 AM,16.3,15.8,98,30.27,5.0,SE,3.5,-,N/A,,Clear,140,2013-11-08 11:58:00
6:33 AM,21.2,19.4,93,30.22,6.0,ESE,3.5,-,N/A,,Clear,120,2013-11-08 12:33:00
6:58 AM,20.8,20.7,99,30.27,6.0,SE,2.3,-,N/A,,Clear,130,2013-11-08 12:58:00
7:58 AM,26.6,26.6,100,30.28,7.0,Variable,3.5,-,N/A,,Scattered Clouds,0,2013-11-08 13:58:00
8:58 AM,32.0,32.0,100,30.27,10.0,South,5.8,-,N/A,,Mostly Cloudy,170,2013-11-08 14:58:00
9:58 AM,35.6,32.0,87,30.24,10.0,SSE,8.1,-,N/A,,Overcast,150,2013-11-08 15:58:00
10:58 AM,37.4,30.2,75,30.22,10.0,SE,8.1,-,N/A,,Overcast,140,2013-11-08 16:58:00
11:58 AM,39.2,32.0,75,30.19,10.0,SE,8.1,-,N/A,,Overcast,140,2013-11-08 17:58:00
12:58 PM,41.0,32.0,70,30.13,10.0,SE,9.2,-,N/A,,Overcast,140,2013-11-08 18:58:00
1:55 PM,41.0,32.0,70,30.06,10.0,SE,9.2,-,N/A,,Partly Cloudy,130,2013-11-08 19:55:00
1:58 PM,41.0,30.2,65,30.10,10.0,SE,9.2,-,N/A,,Overcast,130,2013-11-08 19:58:00
2:58 PM,42.8,32.0,66,30.05,10.0,ESE,11.5,-,N/A,,Overcast,120,2013-11-08 20:58:00
3:58 PM,42.8,28.4,57,30.03,10.0,SE,9.2,-,N/A,,Overcast,130,2013-11-08 21:58:00
4:58 PM,41.0,28.4,61,29.98,10.0,SE,12.7,-,N/A,,Overcast,130,2013-11-08 22:58:00
5:58 PM,41.7,28.0,58,29.97,10.0,SE,12.7,20.7,N/A,,Mostly Cloudy,140,2013-11-08 23:58:00
6:58 PM,42.8,28.6,57,29.95,10.0,SSE,15.0,21.9,N/A,,Partly Cloudy,160,2013-11-09 00:58:00
7:58 PM,43.3,28.2,55,29.90,10.0,SSE,15.0,21.9,N/A,,Scattered Clouds,160,2013-11-09 01:58:00
8:29 PM,44.6,28.4,53,29.86,10.0,SSE,11.5,20.7,N/A,Rain,Light Rain,160,2013-11-09 02:29:00
8:58 PM,42.1,32.2,68,29.87,10.0,SSE,10.4,19.6,0.00,Rain,Light Rain,150,2013-11-09 02:58:00
9:08 PM,41.0,32.0,70,29.81,10.0,SSE,8.1,17.3,N/A,,Clear,150,2013-11-09 03:08:00
9:47 PM,42.8,32.0,66,29.79,10.0,SSE,12.7,-,N/A,Rain,Light Rain,160,2013-11-09 03:47:00
9:58 PM,42.4,32.9,69,29.81,10.0,South,10.4,20.7,0.00,Rain,Light Rain,170,2013-11-09 03:58:00
9:59 PM,42.8,32.0,66,29.78,10.0,South,11.5,20.7,N/A,,Partly Cloudy,170,2013-11-09 03:59:00
10:21 PM,44.6,32.0,61,29.78,10.0,South,9.2,-,N/A,Rain,Light Rain,180,2013-11-09 04:21:00
10:58 PM,43.5,34.3,70,29.76,10.0,South,12.7,-,0.00,Rain,Light Rain,170,2013-11-09 04:58:00
11:24 PM,42.8,37.4,81,29.71,10.0,South,9.2,-,N/A,,Mostly Cloudy,170,2013-11-09 05:24:00
11:58 PM,42.4,38.1,85,29.74,10.0,South,10.4,-,0.00,,Mostly Cloudy,180,2013-11-09 05:58:00